Wetbulb
71.82 71.34 70.86 71.11 70.62 70.46 69.94 70.35 70.52 69.48 69.82 70.07 70.28 70.36 69.99 70.27 70.44 69.85 70.31 64.99 64.57 66.35 67.06 67.66 67.72 67.70 68.29 68.36 68.01 67.08 66.89 66.44 65.45 65.44 65.15 64.20 63.77 63.64 62.61 62.71 63.10 63.55 63.94
72.45 71.47 71.34 71.01 71.58 71.68 71.73 70.78 70.75 70.51 70.30 69.67 69.83 69.83 68.95 69.19 69.45 69.45 69.49 68.96 63.47 64.72 66.26 67.33 67.81 67.71 67.84 68.48 67.98 67.64 67.20 66.54 66.20 65.48 64.83 64.78 63.88 63.32 62.64 61.87 62.52 62.50 63.29
72.42 71.55 71.55 70.19 70.00 71.49 70.93 70.73 69.64 69.55 68.99 68.32 67.83 68.20 67.86 67.73 66.76 67.22 67.96 68.03 66.73 62.49 63.55 65.41 66.69 67.00 66.86 67.03 67.70 67.78 67.56 66.78 66.13 65.86 65.38 64.72 64.28 63.46 62.47 62.10 61.69 62.26 62.79
71.54 70.80 69.99 69.18 70.12 69.69 69.66 68.93 66.54 63.86 62.89 62.50 62.18 62.24 61.81 61.91 62.38 62.81 62.32 62.45 62.93 64.33 63.74 63.20 64.37 64.94 64.94 65.30 65.91 66.42 67.30 66.90 66.81 66.18 65.58 64.95 64.45 63.94 62.83 62.35 61.70 61.72 62.13
70.86 70.51 69.11 67.31 67.03 66.10 64.91 63.37 62.48 62.76 61.67 61.60 61.16 60.85 61.19 60.41 61.15 60.18 60.94 62.51 63.54 63.40 63.40 62.59 62.37 62.41 63.22 64.00 64.55 64.99 65.13 65.42 66.47 66.81 65.97 64.87 64.31 63.86 63.29 62.28 61.87 61.46 61.70
66.41 65.94 64.68 64.19 63.50 63.04 62.68 63.02 62.56 62.46 61.43 60.42 59.47 58.19 59.12 58.92 58.73 60.26 60.18 60.81 60.99 61.11 61.19 61.55 60.21 59.86 60.21 63.27 64.10 64.48 64.62 64.44 64.88 65.43 66.43 66.12 64.71 63.71 63.03 62.44 61.92 61.26 61.24
63.28 62.36 61.74 62.15 62.49 62.10 62.32 62.35 60.34 58.86 57.81 58.44 55.02 54.67 54.06 57.68 59.32 57.80 59.78 57.03 57.03 58.98 59.63 59.48 58.35 58.47 57.88 58.51 62.06 63.05 61.29 61.98 62.67 63.46 64.09 64.21 64.04 64.08 62.81 62.50 61.87 61.48 60.79
62.41 61.21 61.41 61.08 61.30 61.00 60.28 59.16 57.33 54.82 54.69 55.46 52.09 51.39 48.42 51.50 54.28 54.86 55.06 55.87 56.70 56.90 55.39 55.76 56.81 56.72 56.42 56.52 57.18 58.42 59.03 58.18 58.76 59.82 60.08 60.45 61.21 61.45 61.98 63.03 61.92 61.63 61.01
61.16 61.54 60.78 59.96 59.16 58.69 56.97 56.60 55.46 54.07 51.58 53.15 53.69 50.28 46.55 45.32 49.21 52.22 53.64 53.47 55.58 53.79 53.94 53.89 55.07 55.32 55.73 55.27 56.14 56.21 54.40 53.92 55.23 56.04 56.13 56.21 56.71 57.65 59.53 61.72 62.40 61.55 60.84
60.22 59.69 59.22 58.47 57.71 56.73 55.96 54.99 54.44 54.33 53.18 50.41 52.22 51.70 53.03 51.10 46.38 45.08 50.12 51.98 52.76 52.84 54.29 53.65 53.65 54.43 54.94 54.92 55.11 53.92 51.85 51.19 52.43 53.79 54.57 54.38 54.48 55.40 57.11 59.07 61.15 61.88 61.23
59.43 58.32 58.09 57.51 56.68 55.94 55.50 54.80 54.59 53.92 53.15 51.49 50.40 50.35 51.68 50.82 51.81 47.60 45.38 47.53 50.56 51.98 53.03 53.61 54.42 53.44 54.62 55.22 54.62 53.93 51.39 50.30 50.78 52.50 53.31 53.12 53.27 53.77 54.34 56.09 57.60 59.51 61.61
57.45 57.19 56.45 56.56 56.13 55.61 54.89 54.26 54.39 53.76 53.15 52.61 52.17 51.60 50.03 48.30 47.50 48.35 47.23 48.09 48.05 50.71 52.46 53.30 53.62 53.64 54.23 54.12 53.35 51.44 50.73 49.79 49.80 51.50 52.19 51.22 51.26 51.64 53.15 53.54 54.54 58.38 58.00
56.42 56.56 55.93 55.91 55.51 55.43 54.64 54.46 53.88 53.58 53.38 52.71 52.49 51.26 51.42 50.69 51.08 50.10 48.79 47.97 47.31 49.99 51.25 53.10 53.14 53.36 52.25 53.18 53.30 51.05 50.87 48.56 48.66 50.08 49.96 49.95 49.76 49.99 51.39 52.42 53.10 56.02 57.06
55.92 57.09 55.10 54.61 53.84 53.38 53.35 53.32 52.61 52.28 53.69 52.77 52.44 52.03 51.11 51.13 51.62 50.21 48.22 48.09 45.99 47.76 49.48 49.93 53.05 53.23 53.46 52.80 51.49 49.83 51.30 48.54 47.87 47.59 48.29 49.02 49.01 48.83 49.46 51.05 51.63 53.47 53.90
54.54 54.33 53.29 52.93 53.05 53.01 52.57 52.62 51.55 51.85 52.27 52.44 52.57 52.14 50.65 50.59 51.59 50.77 50.41 49.46 47.45 43.77 44.39 48.80 48.86 52.29 53.29 52.98 51.32 52.07 52.76 49.61 47.32 46.98 46.83 47.08 47.47 48.06 48.24 48.47 49.66 50.82 52.34
52.54 53.20 52.86 52.05 51.52 51.27 51.31 51.24 50.67 51.24 50.81 50.66 50.34 50.15 50.08 49.89 50.04 50.30 51.02 49.98 49.27 46.54 43.50 48.13 49.12 51.32 52.55 51.09 50.86 51.10 51.92 48.95 48.08 46.07 45.42 45.20 45.78 46.45 46.42 46.81 47.30 48.49 49.74
52.51 51.64 50.89 50.57 49.88 49.35 49.81 49.80 49.86 49.57 48.70 49.18 49.91 49.06 48.86 49.60 48.69 48.74 49.90 48.63 46.72 46.48 44.84 46.87 49.17 50.23 50.39 50.19 50.64 51.04 51.01 51.20 50.34 45.35 44.68 44.45 44.09 44.06 44.62 44.53 44.84 45.93 47.66
51.22 50.17 49.85 49.00 48.54 48.43 49.30 48.82 48.08 48.48 48.02 47.58 47.82 47.89 47.64 47.73 47.61 48.29 48.41 47.56 45.21 45.89 44.83 42.83 45.73 46.16 46.70 48.50 48.96 48.71 48.16 48.60 49.98 47.08 44.31 43.98 43.96 43.52 42.98 43.16 43.19 43.56 43.97
49.75 48.94 48.49 48.19 48.17 48.61 48.05 47.86 47.37 46.96 47.27 47.00 47.16 46.87 46.83 46.95 46.21 46.87 46.70 44.33 43.45 43.45 42.02 40.95 41.06 43.10 43.04 43.73 44.01 45.87 47.19 46.86 48.84 46.92 44.19 43.12 43.54 43.66 44.05 43.17 43.23 43.26 42.96
48.15 48.18 48.37 48.31 48.31 47.75 47.00 46.19 46.21 45.90 45.74 45.93 46.76 46.67 46.12 45.67 44.83 42.03 41.86 41.32 41.05 40.66 40.15 38.23 37.84 39.10 40.61 41.34 40.13 39.80 42.14 45.28 44.94 46.93 45.58 43.24 42.83 44.13 44.05 43.56 43.19 44.02 43.62
47.81 47.70 47.19 47.12 47.28 46.72 44.97 43.53 43.46 43.58 43.43 43.48 43.70 43.23 43.64 41.95 39.70 38.96 39.01 38.48 37.28 36.87 35.60 35.02 35.47 37.41 37.32 37.64 36.84 39.32 38.78 39.11 40.35 43.82 44.14 46.03 44.68 45.15 44.94 43.80 44.33 42.38 40.87
46.81 46.12 46.04 45.82 45.82 45.53 37.76 37.63 38.05 41.01 41.99 41.40 39.75 39.80 40.04 39.68 40.23 37.15 36.51 35.97 35.58 35.23 34.07 33.59 32.84 32.01 32.88 35.01 36.38 37.20 37.47 36.05 34.04 42.17 40.78 41.33 43.28 42.48 44.05 44.41 40.92 39.41 39.02
45.37 45.51 45.51 45.94 45.65 42.20 37.56 37.06 36.42 39.66 40.73 39.67 38.60 38.89 38.19 39.54 38.06 38.62 36.92 35.14 34.72 34.64 32.80 33.61 32.28 32.72 33.54 35.10 36.38 35.23 35.63 35.35 35.27 38.55 38.07 36.01 40.58 39.99 42.58 41.07 39.22 37.84 37.82
45.33 46.02 45.55 43.49 42.85 42.58 36.78 36.59 35.84 40.70 41.42 40.45 39.78 38.81 38.05 38.04 37.94 36.94 35.53 34.40 34.46 35.13 35.55 34.58 34.49 34.97 35.74 36.80 36.52 35.78 34.27 34.59 35.10 36.34 38.12 33.47 38.20 36.72 39.83 39.75 37.55 36.89 37.40
44.43 43.77 43.05 42.55 42.41 42.89 36.73 35.81 36.28 39.57 39.66 39.59 39.37 39.24 37.90 37.47 36.23 35.40 33.79 32.80 32.75 33.86 35.62 35.96 36.15 36.14 36.44 36.51 36.60 35.19 32.52 32.01 32.28 33.85 34.03 34.76 36.75 35.28 36.93 35.66 34.96 35.87 37.70
43.22 42.84 42.31 42.41 36.87 41.84 35.69 35.67 36.33 38.15 36.64 36.53 37.49 37.59 35.60 35.40 33.79 33.53 33.68 32.81 31.45 32.74 33.83 33.67 33.85 34.90 35.36 35.41 34.80 36.12 34.40 31.92 32.32 32.22 34.57 34.03 36.02 35.45 33.67 34.74 32.69 33.36 37.11
MSLP
1015.70 1015.72 1015.92 1015.95 1016.21 1016.25 1016.35 1016.54 1016.73 1016.99 1016.94 1016.88 1016.67 1016.53 1016.49 1016.31 1016.13 1016.03 1015.91 1015.98 1016.11 1016.24 1016.39 1016.38 1016.35 1016.31 1016.37 1016.55 1016.71 1016.69 1016.76 1016.81 1016.83 1016.95 1017.08 1017.12 1016.96 1016.91 1017.18 1017.41 1017.45 1017.37 1017.34
1015.94 1015.95 1016.12 1016.08 1016.24 1016.44 1016.53 1016.64 1016.87 1016.91 1016.94 1016.93 1016.80 1016.82 1016.61 1016.46 1016.19 1016.02 1015.81 1015.57 1015.80 1015.80 1015.90 1015.93 1016.00 1016.00 1015.98 1015.83 1015.65 1015.73 1015.92 1016.02 1016.27 1016.20 1016.44 1016.77 1016.78 1016.71 1016.44 1016.67 1016.94 1016.94 1016.90
1015.95 1016.11 1016.40 1016.69 1016.81 1016.88 1017.05 1016.94 1016.85 1016.76 1016.81 1016.20 1016.23 1015.88 1016.03 1015.89 1015.59 1015.29 1015.31 1014.88 1014.48 1015.22 1015.43 1015.50 1015.55 1015.68 1015.85 1015.90 1015.82 1015.59 1015.41 1015.38 1015.28 1015.54 1015.50 1015.36 1015.78 1016.13 1016.20 1016.04 1016.27 1016.59 1016.68
1016.08 1016.40 1016.71 1016.79 1016.68 1016.73 1016.47 1016.44 1016.61 1016.45 1016.17 1016.14 1016.01 1015.87 1015.78 1015.58 1015.30 1015.40 1015.10 1014.71 1014.39 1014.33 1014.38 1014.78 1015.54 1015.76 1015.78 1015.73 1015.62 1015.40 1015.14 1015.02 1014.82 1014.56 1014.69 1014.74 1014.62 1014.88 1015.28 1015.56 1015.67 1015.97 1016.24
1016.26 1016.27 1016.21 1016.51 1016.46 1016.39 1016.52 1016.73 1016.74 1016.88 1016.85 1016.51 1016.34 1016.22 1016.05 1015.67 1015.52 1015.21 1015.12 1014.78 1014.71 1014.66 1014.58 1014.61 1015.06 1015.18 1015.11 1015.25 1015.20 1015.08 1014.91 1014.61 1014.33 1013.98 1013.79 1013.80 1013.88 1013.99 1014.19 1014.62 1015.11 1015.41 1015.75
1016.28 1016.17 1016.39 1016.68 1016.56 1016.56 1016.72 1017.17 1017.43 1017.36 1017.26 1016.83 1016.79 1016.62 1016.12 1015.86 1015.49 1015.34 1015.17 1015.15 1015.02 1015.13 1015.05 1014.82 1014.80 1014.51 1014.63 1014.69 1014.65 1014.52 1014.29 1014.15 1013.88 1013.46 1013.18 1012.68 1012.52 1012.65 1013.02 1013.62 1013.99 1014.39 1014.70
1016.33 1016.29 1016.23 1016.61 1016.71 1016.85 1017.32 1017.54 1017.62 1017.43 1017.23 1017.31 1017.34 1016.73 1016.33 1015.62 1015.38 1015.25 1015.24 1015.52 1015.54 1014.96 1015.10 1015.06 1015.26 1015.01 1014.85 1014.78 1014.53 1014.62 1014.38 1013.96 1013.64 1013.44 1013.10 1012.85 1012.62 1011.18 1011.33 1011.31 1012.19 1012.72 1013.17
1016.28 1016.37 1016.55 1016.77 1017.04 1017.07 1017.66 1018.04 1018.17 1017.89 1017.47 1017.58 1017.64 1017.46 1016.49 1015.96 1015.38 1015.91 1015.98 1015.70 1015.83 1015.68 1015.51 1015.48 1015.46 1015.40 1015.24 1014.78 1014.61 1014.52 1014.26 1014.27 1014.35 1013.99 1013.62 1013.11 1012.75 1012.33 1011.88 1010.92 1010.51 1010.93 1011.82
1016.56 1016.77 1016.90 1017.05 1017.40 1017.39 1017.70 1018.22 1018.35 1018.14 1017.87 1017.85 1017.84 1017.84 1017.10 1016.76 1016.69 1016.47 1016.25 1015.93 1015.87 1015.92 1015.87 1015.61 1015.43 1015.24 1015.02 1014.83 1014.60 1014.27 1014.47 1014.73 1014.50 1014.16 1013.82 1013.42 1012.97 1012.39 1011.42 1011.39 1010.16 1009.82 1011.05
1016.72 1017.09 1017.26 1017.45 1017.68 1017.71 1018.13 1018.17 1018.28 1018.61 1018.42 1018.14 1017.99 1017.79 1017.91 1017.82 1017.32 1016.59 1016.56 1016.20 1016.00 1015.77 1015.53 1015.37 1015.21 1014.97 1014.77 1014.34 1014.13 1014.25 1014.68 1014.61 1014.41 1014.28 1013.83 1013.47 1013.03 1012.46 1011.60 1010.83 1010.22 1009.24 1009.56
1016.69 1016.98 1017.26 1017.61 1017.88 1017.83 1018.26 1018.50 1018.65 1018.72 1018.60 1018.42 1018.23 1018.17 1018.00 1017.72 1017.38 1017.15 1016.30 1016.10 1016.05 1015.78 1015.37 1015.04 1014.77 1014.66 1014.27 1013.73 1013.81 1013.91 1014.17 1014.03 1014.07 1013.79 1013.69 1013.38 1012.91 1012.35 1011.50 1010.89 1010.40 1009.33 1007.15
1016.50 1016.90 1017.25 1017.53 1017.90 1018.11 1018.31 1018.55 1018.65 1018.68 1018.73 1018.81 1018.68 1018.40 1018.06 1017.77 1017.56 1017.37 1016.78 1016.31 1015.88 1015.36 1015.06 1014.74 1014.44 1014.17 1013.72 1013.40 1013.58 1013.71 1013.71 1013.85 1013.59 1013.23 1013.22 1012.91 1012.56 1012.04 1011.25 1010.52 1009.79 1009.22 1009.26
1016.03 1016.81 1017.22 1017.69 1017.80 1018.07 1018.43 1018.56 1018.62 1018.79 1018.91 1018.76 1018.69 1018.52 1018.26 1018.00 1017.77 1017.48 1016.98 1016.19 1015.56 1015.11 1014.60 1014.32 1014.04 1013.73 1013.49 1013.23 1013.28 1013.47 1013.46 1013.22 1012.88 1012.80 1012.68 1012.32 1012.01 1011.68 1011.15 1010.30 1009.28 1009.09 1008.19
1015.96 1016.79 1017.35 1017.75 1018.03 1018.33 1018.57 1018.61 1018.73 1018.83 1018.81 1018.76 1018.73 1018.64 1018.37 1018.13 1017.89 1017.50 1017.05 1016.46 1015.43 1014.92 1014.23 1014.05 1013.70 1013.38 1012.89 1012.75 1012.84 1013.19 1012.84 1012.38 1012.20 1012.03 1011.76 1011.63 1011.57 1011.17 1010.71 1010.14 1009.18 1008.89 1008.58
1016.35 1017.06 1017.51 1017.85 1018.14 1018.43 1018.58 1018.68 1018.90 1018.84 1018.85 1018.89 1018.78 1018.59 1018.32 1018.00 1017.84 1017.43 1017.07 1016.74 1016.25 1015.32 1013.96 1013.44 1013.31 1012.99 1012.65 1012.27 1012.19 1012.39 1011.99 1011.71 1011.63 1011.10 1010.77 1010.81 1010.85 1010.54 1010.32 1009.72 1009.25 1008.38 1008.00
1016.44 1017.13 1017.59 1017.99 1018.29 1018.50 1018.64 1018.88 1019.02 1018.88 1018.85 1018.87 1018.70 1018.50 1018.50 1018.20 1017.76 1017.49 1017.18 1016.71 1016.28 1016.08 1015.14 1013.99 1013.31 1012.90 1012.35 1012.06 1011.88 1011.90 1011.65 1011.11 1010.64 1010.44 1010.42 1010.64 1010.25 1009.94 1009.78 1009.37 1008.69 1007.93 1007.34
1016.68 1017.25 1017.69 1018.01 1018.29 1018.54 1018.83 1019.15 1019.10 1019.02 1018.93 1018.88 1018.83 1018.71 1018.47 1018.35 1017.83 1017.39 1017.08 1016.87 1017.08 1016.98 1015.72 1013.52 1013.74 1013.05 1012.57 1012.30 1011.74 1011.46 1011.17 1010.72 1010.12 1009.71 1009.96 1010.08 1009.79 1009.40 1009.29 1008.84 1008.29 1007.75 1007.34
1016.96 1017.41 1017.73 1018.05 1018.29 1018.60 1018.98 1019.17 1019.17 1019.17 1019.06 1018.97 1018.94 1018.81 1018.55 1018.23 1017.91 1017.54 1017.18 1016.67 1016.80 1016.80 1016.10 1014.86 1013.60 1013.54 1013.24 1012.73 1012.13 1011.59 1010.96 1010.37 1009.47 1008.93 1009.17 1009.46 1009.25 1008.81 1008.69 1008.55 1008.01 1007.41 1006.69
1016.94 1017.43 1017.81 1018.08 1018.39 1018.82 1019.17 1019.38 1019.39 1019.40 1019.39 1019.28 1019.16 1018.91 1018.62 1018.27 1017.89 1017.59 1017.41 1017.53 1017.55 1017.00 1016.75 1016.21 1014.57 1014.37 1013.80 1013.54 1012.64 1011.91 1010.88 1010.02 1009.19 1008.56 1008.47 1008.72 1008.57 1008.21 1007.89 1007.87 1007.44 1006.81 1006.06
1016.97 1017.41 1017.80 1018.18 1018.63 1019.05 1019.32 1019.57 1019.67 1019.84 1019.81 1019.49 1019.29 1019.07 1018.86 1018.65 1018.43 1018.85 1018.56 1018.31 1017.88 1017.40 1016.86 1016.24 1015.31 1014.23 1013.75 1013.30 1013.12 1012.29 1010.68 1009.96 1009.17 1008.48 1008.25 1008.32 1008.06 1007.71 1007.52 1007.03 1006.98 1006.35 1005.94
1016.91 1017.39 1017.88 1018.30 1018.77 1019.18 1019.51 1020.29 1020.36 1020.23 1019.93 1019.64 1019.56 1019.62 1019.43 1019.30 1019.48 1019.54 1019.24 1018.78 1018.59 1018.04 1017.35 1016.68 1015.63 1014.65 1013.87 1013.29 1013.04 1012.17 1011.30 1010.52 1009.74 1009.11 1008.50 1008.01 1007.63 1007.52 1007.31 1006.69 1006.16 1005.98 1005.74
1016.98 1017.59 1017.96 1018.41 1018.78 1019.12 1020.46 1020.87 1020.89 1020.53 1019.98 1019.73 1019.78 1019.94 1019.84 1019.67 1019.24 1019.15 1019.17 1019.09 1019.05 1018.41 1017.47 1016.87 1015.92 1015.11 1014.02 1013.63 1012.93 1012.33 1011.40 1010.74 1009.92 1009.21 1008.81 1008.25 1008.12 1007.14 1006.87 1006.49 1006.10 1005.88 1005.76
1016.97 1017.49 1017.92 1018.29 1018.56 1019.80 1020.49 1020.83 1020.90 1020.32 1019.81 1019.79 1019.89 1019.72 1019.64 1019.58 1019.45 1019.14 1018.81 1018.51 1018.28 1017.95 1017.52 1016.93 1015.89 1015.08 1013.99 1013.57 1012.84 1011.93 1011.34 1010.75 1010.17 1009.44 1009.15 1008.35 1008.19 1007.16 1006.52 1006.08 1005.90 1005.23 1004.92
1016.97 1017.21 1017.79 1018.71 1019.18 1019.52 1020.26 1020.68 1020.58 1019.96 1019.58 1019.54 1019.52 1019.64 1019.45 1019.09 1019.01 1018.82 1018.44 1017.92 1017.57 1017.09 1016.60 1016.16 1015.58 1014.62 1013.96 1013.14 1012.60 1011.88 1011.34 1010.68 1009.99 1009.50 1009.36 1008.49 1007.92 1007.15 1006.61 1006.22 1005.92 1005.30 1004.36
1017.10 1017.57 1018.02 1018.45 1018.73 1019.01 1019.84 1020.25 1020.11 1019.63 1019.38 1019.50 1019.38 1019.30 1019.45 1018.98 1018.84 1018.70 1018.18 1017.64 1016.89 1016.18 1015.72 1015.32 1014.74 1013.92 1013.15 1012.51 1011.92 1011.34 1010.80 1010.42 1009.65 1009.11 1008.92 1008.57 1007.85 1007.22 1006.78 1006.59 1005.80 1004.58 1003.29
1016.84 1017.43 1017.65 1018.02 1018.77 1018.64 1019.71 1019.98 1019.86 1019.74 1019.69 1019.59 1019.37 1019.17 1018.96 1018.70 1018.42 1018.24 1017.98 1017.21 1016.31 1015.64 1015.19 1014.62 1013.86 1013.06 1012.48 1011.85 1011.41 1011.13 1010.56 1010.11 1009.77 1009.13 1008.65 1008.71 1007.99 1007.84 1007.14 1006.92 1006.31 1005.05 1003.74
Wind_Speed
4 4 2 3 3 2 3 3 4 4 4 6 7 7 9 10 10 6 6 8 10 11 12 14 16 17 17 17 17 17 17 17 18 18 18 17 16 16 16 12 11 10 11
4 4 3 4 2 3 5 3 3 4 4 4 7 9 10 10 11 10 8 8 12 13 13 15 16 18 19 19 19 18 19 19 19 20 19 19 18 18 17 18 14 13 13
4 3 2 2 1 1 3 4 4 4 5 6 8 8 7 8 9 10 8 10 10 14 13 14 15 15 16 20 21 21 20 21 21 22 21 21 21 21 20 19 19 16 17
4 4 3 3 3 4 3 2 3 6 6 6 6 7 8 9 10 10 10 9 10 11 7 15 5 9 12 14 19 22 24 24 23 23 23 22 22 23 23 22 22 20 19
7 6 4 4 1 1 1 3 4 5 6 7 7 8 9 9 10 10 12 11 10 10 11 2 9 10 10 14 15 16 20 24 25 26 26 25 25 24 24 24 23 22 20
6 4 4 3 2 0 1 5 4 5 6 6 8 9 8 9 9 8 8 9 10 11 10 10 9 10 11 14 13 16 17 20 24 25 26 27 29 27 26 25 25 25 24
6 4 4 4 1 2 3 2 3 5 5 6 7 8 9 10 7 8 7 10 13 10 12 10 9 10 10 18 12 14 20 22 25 27 27 26 24 26 30 31 29 29 28
6 5 4 3 1 4 3 3 4 4 4 5 6 9 6 8 7 11 9 7 11 9 12 13 12 12 11 10 13 19 17 21 22 25 28 30 29 27 24 31 30 30 29
6 6 5 5 4 1 3 3 3 5 5 6 5 5 6 5 9 9 10 9 10 9 10 11 11 11 12 11 13 12 13 17 20 22 23 25 27 30 30 29 30 30 28
7 5 5 4 3 2 2 2 4 4 5 6 6 6 6 8 9 10 9 9 10 10 10 8 10 10 12 11 11 6 2 6 15 23 26 25 24 25 27 27 26 28 32
8 7 5 4 3 1 2 2 3 5 5 6 6 7 7 8 8 10 11 11 11 10 10 9 9 10 12 12 9 9 9 10 12 17 20 22 23 23 23 25 30 32 38
7 6 5 3 2 1 2 3 4 6 6 7 7 8 8 9 9 10 11 11 12 9 10 10 10 10 9 9 9 8 8 11 14 14 15 18 22 24 23 23 27 25 29
7 7 4 3 2 1 3 4 5 7 7 7 8 8 9 9 9 9 10 10 11 10 11 9 9 9 11 8 10 6 12 13 14 9 12 16 19 21 24 21 22 27 24
6 7 4 2 1 2 4 4 5 6 7 7 9 9 9 9 9 10 11 11 12 12 13 14 10 9 9 9 4 10 12 16 6 9 12 11 15 17 21 23 17 20 26
6 5 4 2 1 2 3 5 6 7 7 8 8 9 9 9 9 10 10 10 11 13 15 13 12 12 10 10 8 9 11 14 10 15 12 8 11 13 18 21 21 16 20
6 6 4 3 1 3 5 6 7 8 8 7 7 9 10 9 10 9 9 10 10 10 13 12 13 13 12 12 11 11 14 14 15 10 7 8 10 10 14 17 19 17 18
7 5 3 1 2 3 5 6 7 7 7 8 9 9 10 12 9 10 9 10 8 11 13 17 12 14 16 16 14 12 13 15 12 6 5 8 11 9 11 15 15 16 16
5 4 3 1 1 3 5 5 6 7 8 9 9 10 11 9 12 12 10 12 8 13 12 18 17 14 15 16 17 17 11 12 12 12 2 10 13 13 10 12 16 16 15
5 4 3 1 1 2 4 4 5 6 8 9 9 10 11 12 13 11 12 10 11 10 11 12 17 12 14 13 16 17 16 13 12 12 6 8 14 9 10 11 12 16 13
5 4 3 1 1 3 3 4 5 7 8 9 10 11 12 13 13 13 13 15 13 13 12 11 12 13 11 11 10 12 14 11 12 11 9 11 11 10 12 13 13 11 15
5 4 4 4 3 2 2 5 7 8 9 10 10 11 11 13 15 14 10 11 12 12 11 12 13 13 12 11 12 11 12 11 11 9 9 9 7 9 11 14 11 12 15
6 4 5 4 4 4 10 7 6 8 9 9 10 10 12 14 14 12 12 10 11 14 16 12 12 14 17 12 13 12 10 9 9 3 4 7 9 11 9 8 13 16 18
7 7 6 5 3 11 8 5 5 7 7 7 8 9 11 10 14 12 12 12 15 14 15 15 17 14 15 13 13 13 11 9 10 6 3 9 7 11 8 9 14 20 21
7 7 5 3 3 1 5 3 5 8 7 7 8 11 12 13 11 12 14 16 14 14 13 12 14 15 14 14 13 11 11 10 6 6 6 8 2 9 6 7 17 22 22
6 6 5 5 4 1 9 1 7 8 8 10 10 12 13 13 14 16 15 16 15 14 12 16 18 22 23 23 18 8 7 6 6 4 1 3 3 6 3 5 10 23 21
7 5 5 4 6 3 9 7 8 6 8 8 10 12 10 13 12 15 14 14 14 12 11 13 13 13 11 11 12 8 6 6 5 4 2 3 2 3 4 2 9 12 9
Wind_Direction
189 187 166 205 182 224 169 16 21 345 302 283 273 293 282 281 277 275 280 191 197 212 233 248 254 255 254 252 252 247 244 249 251 253 250 244 239 232 237 242 242 245 215
202 213 194 224 232 287 0 309 285 279 273 286 286 292 294 301 298 306 310 299 212 214 223 236 249 256 261 257 250 242 239 236 246 249 253 250 244 241 229 232 231 233 218
201 209 164 37 81 228 230 264 275 272 269 248 248 242 263 254 280 292 260 260 279 202 223 233 239 248 266 277 280 272 255 242 235 238 239 239 242 240 238 230 230 229 227
166 134 155 150 182 186 224 305 318 326 318 318 308 309 319 307 306 308 283 291 310 316 236 226 250 257 271 280 284 289 282 272 253 240 238 237 240 239 234 232 230 228 227
165 178 166 104 236 63 9 341 340 332 323 316 319 323 311 306 313 307 306 316 312 325 330 257 202 228 246 259 267 279 290 293 288 265 241 237 234 239 236 230 229 229 227
142 151 118 121 274 348 13 18 337 328 308 320 326 312 306 306 301 300 316 310 334 318 307 336 322 315 254 244 253 263 276 291 293 294 288 252 235 230 229 231 226 225 224
137 166 129 147 178 64 44 19 325 329 315 4 311 327 315 279 316 304 349 335 309 319 323 320 329 332 331 327 278 301 323 308 304 303 303 300 305 259 226 217 221 221 219
151 140 139 146 36 125 96 32 4 344 329 5 335 313 333 299 7 348 326 320 309 340 331 323 322 315 312 316 321 321 333 348 342 339 335 332 325 315 303 245 219 219 220
140 137 141 103 121 21 80 23 11 359 336 330 349 309 326 333 322 318 321 309 338 322 310 309 307 300 313 306 305 327 9 3 352 344 339 337 332 324 323 304 232 215 223
146 137 123 109 73 84 73 14 39 337 324 318 329 330 315 302 311 310 307 308 307 307 302 304 306 300 306 294 295 298 36 355 348 336 330 327 327 332 326 316 307 230 210
152 152 142 132 129 24 55 332 326 327 316 320 320 313 310 300 301 303 304 308 308 305 310 300 304 303 295 296 343 341 354 345 320 319 315 323 324 322 328 325 315 332 215
156 148 149 157 139 14 318 311 318 304 307 306 296 296 300 308 306 303 301 306 301 298 302 301 301 299 301 306 315 305 328 313 290 289 302 316 322 319 319 321 334 310 325
164 153 170 175 221 318 297 301 306 306 294 290 305 303 303 297 302 297 296 296 300 301 293 295 291 304 297 304 294 340 304 284 281 279 296 304 318 319 315 316 334 325 323
156 133 170 204 259 300 301 307 307 291 298 298 300 296 298 297 295 298 299 302 300 300 298 301 295 310 306 297 307 294 285 269 213 253 269 291 303 320 316 312 326 330 317
129 153 168 211 231 284 321 324 300 300 299 301 303 295 295 301 300 295 298 299 299 302 300 306 300 302 300 312 290 283 288 307 262 279 280 268 295 323 320 318 310 315 308
140 159 163 172 271 318 319 309 295 300 308 307 299 307 304 299 303 303 294 296 306 319 297 298 297 302 307 305 304 311 300 291 283 286 269 273 288 305 313 309 307 306 314
153 162 164 170 300 322 311 298 299 300 304 308 309 303 306 305 305 307 307 298 300 292 294 296 301 307 313 312 304 298 300 290 289 298 312 279 291 289 282 295 297 295 284
150 161 172 190 328 311 298 311 306 322 313 310 312 311 310 313 308 303 297 306 318 296 294 299 304 305 304 314 311 301 291 286 290 282 288 299 292 289 282 289 287 278 280
156 161 142 140 308 303 293 308 311 320 316 314 308 312 308 310 308 306 320 320 299 301 295 292 296 307 305 311 309 304 301 291 287 285 263 300 292 297 308 293 297 282 271
152 150 141 147 214 256 284 331 340 338 319 316 316 316 313 312 331 330 314 309 311 307 302 287 282 291 294 302 289 296 296 303 300 305 315 296 288 295 292 306 295 302 283
140 155 163 171 194 231 37 13 348 325 320 316 321 320 313 330 320 292 299 309 308 302 303 298 296 299 302 307 301 297 288 297 301 301 302 297 314 320 305 300 302 339 333
153 165 174 165 190 84 82 65 354 313 316 322 318 316 314 309 299 328 304 297 292 299 296 293 298 292 296 295 294 293 290 291 296 281 311 301 308 301 298 303 326 323 316
150 166 172 188 192 111 85 41 349 309 319 324 317 312 309 308 314 308 309 302 297 280 272 285 286 286 292 296 293 290 285 282 285 291 319 292 304 289 303 308 320 318 308
174 175 137 124 169 190 80 293 316 304 327 316 306 311 305 309 311 315 315 306 299 288 286 290 287 290 287 291 287 287 290 290 280 277 255 279 265 287 303 312 321 314 305
153 157 161 174 206 150 160 86 340 340 330 326 320 311 314 310 310 311 304 300 297 293 286 284 283 283 283 283 281 287 273 276 283 283 246 278 280 296 297 334 324 327 315
157 166 161 149 115 132 106 64 16 335 324 318 311 313 303 293 292 302 302 300 298 301 305 306 302 300 298 292 292 275 278 274 279 285 212 260 296 335 302 52 345 343 328